Flag for Germany Weather past 2 weeks in Hameln, Lower Saxony, Germany

Now
54 °F

Passing clouds.


Feels Like: 51 °F
Forecast: 44 / 61 °F
Wind: 8 mph from Northwest

Location: Bueckeburg

Current Time: Sep 22, 2014 at 11:08:07 PM

Latest Report: Sep 22, 2014 at 10:20 PM


Visibility: N/A

Pressure: 30.09 "Hg

Humidity: 72%

Dew point: 45 °F

Location of HamelnLocation

Historic Weather in Hameln — Graph

°F

Hameln temperature yesterday

Maximum temperature yesterday: 64 °F (at 3:20 PM)
Minimum temperature yesterday: 54 °F (at 11:20 PM)
Average temperature yesterday: 61 °F

Past Weeks' High & Low Weather Summary

 TemperatureHumidityPressure
High79 °F (Sep 18, 4:20 PM)100% (Sep 7, 11:47 PM)30.24 "Hg (Sep 7, 11:47 PM)
Low45 °F (Sep 22, 11:01 AM)50% (Sep 17, 3:20 PM)29.86 "Hg (Sep 18, 1:20 PM)
Average61 °F83%30.03 "Hg
* Reported Sep 7 9:20 PM — Sep 22 9:20 PM, Hameln, Weather by CustomWeather, © 2014

Note: Actual official high and low records may vary slightly from our data, if they occured in-between our weather recording intervals... More about our weather records

Advertising

Hameln weather history for previous 24 hours

 ConditionsComfort  
Time TempWeatherWind HumidityBarometerVisibility
9:20 PM
Sep 22
55 °FPassing clouds.8 mph63%30.09 "HgN/A
8:20 PM55 °FPartly sunny.9 mph63%30.07 "HgN/A
7:20 PM55 °FPartly sunny.7 mph63%30.07 "HgN/A
7:02 PM55 °FScattered clouds.9 mph63%30.04 "HgN/A
6:20 PM57 °FScattered clouds.12 mph59%30.04 "HgN/A
5:20 PM57 °FPartly sunny.12 mph59%30.01 "HgN/A
4:20 PM57 °FPartly sunny.12 mph59%30.01 "HgN/A
3:20 PM57 °FScattered clouds.14 mph67%29.98 "HgN/A
2:20 PM55 °FPassing clouds.15 mph77%30.01 "HgN/A
1:20 PM54 °FPassing clouds.12 mph77%29.98 "HgN/A
12:20 PM48 °FScattered clouds.7 mph94%29.98 "HgN/A
11:20 AM46 °FLight rain. Partly sunny.3 mph93%30.01 "HgN/A
11:01 AM45 °FRain. Fog.13 mph93%30.01 "Hg3 mi
10:20 AM54 °FLight rain. Broken clouds.16 mph77%29.95 "Hg4 mi
9:20 AM54 °FPartly sunny.15 mph82%29.95 "HgN/A
8:20 AM54 °FScattered clouds.18 mph82%29.95 "HgN/A
7:20 AM54 °FPassing clouds.15 mph82%29.98 "HgN/A
6:20 AM54 °FPassing clouds.14 mph82%29.98 "HgN/A
5:20 AM54 °FPassing clouds.15 mph82%29.98 "HgN/A
4:20 AM54 °FPassing clouds.14 mph88%29.98 "HgN/A
3:20 AM54 °FPartly cloudy.10 mph88%30.01 "HgN/A
2:20 AM54 °FPartly cloudy.10 mph94%30.01 "HgN/A
1:20 AM54 °FPassing clouds.10 mph94%30.01 "HgN/A
12:20 AM54 °FPartly cloudy.10 mph94%30.01 "HgN/A
11:20 PM
Sep 21
54 °FPassing clouds.7 mph100%30.01 "HgN/A
Weather by CustomWeather, © 2014

See weather overviewHow to use our weather pages